Manhattan, KS

3:18 AM CDT on May 26, 2018 (GMT -0500)
Manhattan Regional

Weather History for KMHK - March, 2014

Change the Weather History Date:

Saturday, March 22, 2014

  Actual Average Record
Temperature  
Mean Temperature 36 °F 46 °F  
Max Temperature 45 °F 59 °F 84 °F (2011)
Min Temperature 26 °F 32 °F 8 °F (2002)
Degree Days  
Heating Degree Days 29 19  
Month to date heating degree days 563 519  
Since 1 July heating degree days 5094 4679  
Cooling Degree Days 0 0  
Month to date cooling degree days 0 0  
Year to date cooling degree days 0 0  
Moisture  
Dew Point 17 °F    
Average Humidity 53    
Maximum Humidity 84    
Minimum Humidity 22    
Precipitation  
Precipitation T in 0.06 in 0.15 in (2012)
Month to date precipitation 0.09 1.61  
Year to date precipitation 1.31 3.33  
Sea Level Pressure  
Sea Level Pressure 30.39 in    
Wind  
Wind Speed 13 mph (NNE)    
Max Wind Speed 23 mph    
Max Gust Speed 29 mph    
Visibility 8 miles    
Events Snow    
T = Trace of Precipitation, MM = Missing Value Source: NWS Daily Summary

Daily Weather History Graph

Daily Weather History Graph

Search for Another Location

Airport or City:

Astronomy

Mar. 22, 2014 Rise Set
Actual Time 7:26 AM CDT 7:40 PM CDT
Civil Twilight 7:00 AM CDT 8:07 PM CDT
Nautical Twilight 6:28 AM CDT 8:38 PM CDT
Astronomical Twilight 5:57 AM CDT 9:10 PM CDT
Moon 12:59 AM CDT (3/22) 11:13 AM CDT (3/22)
Length of Visible Light 13h 07m
Length of Day
12h 13m
Waning Gibbous, 65% of the Moon is Illuminated
Mar 22
Waning Gibbous
Mar 23
Last Quarter
Mar 30
New
Apr 7
First Quarter
Apr 15
Full

Hourly Weather History & Observations

Time (CDT) Temp. Windchill Dew Point Humidity Pressure Visibility Wind Dir Wind Speed Gust Speed Precip Events Conditions
12:52 AM 37.9 °F 29.6 °F 28.0 °F 68% 30.25 in 10.0 mi NNE 13.8 mph 20.7 mph N/A   Clear
1:52 AM 36.0 °F 30.3 °F 26.1 °F 67% 30.25 in 10.0 mi NNE 6.9 mph - N/A   Clear
2:52 AM 35.1 °F 26.9 °F 24.1 °F 64% 30.27 in 10.0 mi North 11.5 mph - N/A   Clear
3:52 AM 33.1 °F 23.9 °F 21.9 °F 64% 30.27 in 10.0 mi NNE 12.7 mph 20.7 mph N/A   Clear
4:52 AM 30.9 °F 21.7 °F 21.0 °F 67% 30.29 in 10.0 mi NNE 11.5 mph 21.9 mph N/A   Clear
5:52 AM 28.9 °F 17.3 °F 19.9 °F 69% 30.30 in 10.0 mi NNE 16.1 mph 21.9 mph N/A   Clear
6:52 AM 28.0 °F 17.5 °F 16.0 °F 61% 30.35 in 10.0 mi NNE 12.7 mph 24.2 mph N/A   Clear
7:52 AM 28.0 °F 18.6 °F 15.1 °F 58% 30.37 in 10.0 mi NNE 10.4 mph - N/A   Clear
8:52 AM 30.0 °F 20.0 °F 12.9 °F 49% 30.39 in 10.0 mi NNE 12.7 mph 21.9 mph N/A   Clear
9:52 AM 32.0 °F 22.5 °F 9.0 °F 38% 30.40 in 10.0 mi NNE 12.7 mph - N/A   Clear
10:52 AM 34.0 °F 24.6 °F 10.9 °F 38% 30.40 in 10.0 mi NNE 13.8 mph - N/A   Clear
11:52 AM 37.9 °F 29.6 °F 12.0 °F 35% 30.39 in 10.0 mi NE 13.8 mph 21.9 mph N/A   Clear
12:52 PM 41.0 °F 33.1 °F 10.9 °F 29% 30.37 in 10.0 mi NE 15.0 mph 21.9 mph N/A   Clear
1:52 PM 43.0 °F 35.7 °F 10.0 °F 26% 30.35 in 10.0 mi NE 15.0 mph 21.9 mph N/A   Clear
2:52 PM 45.0 °F 38.2 °F 10.9 °F 25% 30.33 in 10.0 mi NE 15.0 mph 23.0 mph N/A   Overcast
3:52 PM 45.0 °F 37.4 °F 9.0 °F 23% 30.32 in 10.0 mi NE 18.4 mph 24.2 mph N/A   Mostly Cloudy
4:52 PM 41.0 °F 32.2 °F 8.1 °F 26% 30.32 in 10.0 mi NNE 18.4 mph 26.5 mph N/A   Overcast
5:52 PM 39.0 °F 30.6 °F 7.0 °F 27% 30.34 in 10.0 mi NNE 15.0 mph - N/A   Overcast
6:52 PM 36.0 °F 25.6 °F 10.9 °F 36% 30.37 in 10.0 mi NNE 18.4 mph 26.5 mph N/A   Overcast
7:52 PM 33.1 °F 23.4 °F 12.9 °F 43% 30.41 in 10.0 mi NNE 13.8 mph 23.0 mph N/A   Overcast
8:52 PM 30.9 °F 20.2 °F 15.1 °F 52% 30.45 in 10.0 mi NNE 15.0 mph 24.2 mph N/A   Overcast
9:52 PM 28.0 °F 18.6 °F 19.9 °F 72% 30.50 in 10.0 mi North 10.4 mph - N/A   Overcast
10:27 PM 27.0 °F 18.0 °F 23.0 °F 85% 30.48 in 1.8 mi North 9.2 mph - 0.00 in Snow Light Snow
10:38 PM 27.0 °F 17.3 °F 24.1 °F 89% 30.49 in 1.2 mi NNE 10.4 mph - 0.00 in Snow Light Snow
10:52 PM 27.0 °F 21.6 °F 24.1 °F 89% 30.53 in 1.2 mi North 4.6 mph - 0.00 in Snow Light Snow
11:05 PM 27.0 °F 19.5 °F 24.1 °F 89% 30.49 in 2.0 mi NNE 6.9 mph - 0.00 in Snow Light Snow
11:30 PM 27.0 °F 20.5 °F 24.1 °F 89% 30.51 in 2.5 mi North 5.8 mph - 0.00 in Snow Light Snow
11:38 PM 27.0 °F 19.5 °F 24.1 °F 89% 30.51 in 4.0 mi North 6.9 mph - 0.00 in Snow Light Snow
11:52 PM 27.0 °F 20.5 °F 23.0 °F 85% 30.55 in 3.0 mi NNW 5.8 mph - 0.00 in Snow Light Snow